• Processing (Info)

  • MPEC 2000-R39 : 2000 RJ60

    The following Minor Planet Electronic Circular may be linked-to from your own Web pages, but must not otherwise be redistributed electronically.

    A form allowing access to any MPEC is at the bottom of this page.


    Read MPEC 2000-R38 Read MPEC 2000-R40


    M.P.E.C. 2000-R39                                Issued 2000 Sept.  9, 15:29 UT
    
         The Minor Planet Electronic Circulars contain information on unusual
             minor planets and routine data on comets.  They are published
       on behalf of Commission 20 of the International Astronomical Union by the
              Minor Planet Center, Smithsonian Astrophysical Observatory,
                              Cambridge, MA 02138, U.S.A.
    
                 Prepared using the Tamkin Foundation Computer Network
    
                 BMARSDEN@CFA.HARVARD.EDU or GWILLIAMS@CFA.HARVARD.EDU
              URL http://cfa-www.harvard.edu/iau/mpc.html  ISSN 1523-6714
    
                                       2000 RJ60
    
    Observations:
         K00R60J* C2000 09 06.20568 21 12 31.25 +25 01 20.7          18.3        704
         K00R60J  C2000 09 06.24777 21 12 20.22 +25 03 29.6          18.5        704
         K00R60J  C2000 09 06.26126 21 12 16.72 +25 04 11.0          18.5        704
         K00R60J 1C2000 09 07.17410 21 08 27.41 +25 49 58.2                      658
         K00R60J 1C2000 09 07.18100 21 08 25.70 +25 50 18.7                      658
         K00R60J 1C2000 09 07.18237 21 08 25.35 +25 50 22.9                      658
         K00R60J  C2000 09 07.18768 21 08 23.51 +25 50 44.0          17.8        704
         K00R60J  C2000 09 07.20148 21 08 20.01 +25 51 25.4          17.7        704
         K00R60J  C2000 09 07.21552 21 08 16.40 +25 52 07.6          18.5        704
         K00R60J  C2000 09 07.22961 21 08 12.73 +25 52 48.3          17.8        704
         K00R60J  C2000 09 07.24416 21 08 08.92 +25 53 32.5          18.1        704
         K00R60J  C2000 09 07.79777 21 05 51.65 +26 20 26.0                      046
         K00R60J  C2000 09 07.79897 21 05 51.31 +26 20 29.7                      046
         K00R60J  C2000 09 07.80353 21 05 50.19 +26 20 44.4                      046
         K00R60J  C2000 09 07.80440 21 05 50.01 +26 20 45.8                      046
         K00R60J  C2000 09 07.80508 21 05 49.81 +26 20 48.1          17.8 R      046
         K00R60J  C2000 09 07.80574 21 05 49.60 +26 20 50.1                      046
         K00R60J  C2000 09 07.87089 21 05 33.11 +26 24 00.3                      595
         K00R60J  C2000 09 07.87382 21 05 32.29 +26 24 08.4                      595
         K00R60J  C2000 09 07.87767 21 05 31.28 +26 24 20.1          18.3 V      595
         K00R60J  C2000 09 07.88551 21 05 29.38 +26 24 38.3          18.0 V      151
         K00R60J  C2000 09 07.89288 21 05 27.49 +26 25 01.3          18.8 V      151
         K00R60J  C2000 09 07.89426 21 05 27.21 +26 25 07.2          19.0 V      151
         K00R60J  C2000 09 07.89574 21 05 26.83 +26 25 11.8          19.0 V      151
         K00R60J  C2000 09 07.89700 21 05 26.50 +26 25 13.7          19.2 V      151
         K00R60J  C2000 09 07.89878 21 05 26.02 +26 25 19.4          19.0 V      151
         K00R60J  C2000 09 07.90147 21 05 25.24 +26 25 25.8                      557
         K00R60J  C2000 09 07.90404 21 05 24.63 +26 25 33.9                      557
         K00R60J  C2000 09 07.90532 21 05 24.29 +26 25 37.8                      557
         K00R60J  C2000 09 08.16019 21 04 21.80 +26 37 55.2          18.3 R      853
         K00R60J  C2000 09 08.16088 21 04 21.65 +26 37 56.8          18.8 R      853
         K00R60J  C2000 09 08.16154 21 04 21.48 +26 37 58.7          18.4 R      853
         K00R60J  C2000 09 08.16328 21 04 21.03 +26 38 03.7          18.6 R      853
         K00R60J  C2000 09 08.80737 21 01 42.56 +27 08 14.2                      557
         K00R60J  C2000 09 08.80878 21 01 42.25 +27 08 17.9                      557
         K00R60J  C2000 09 08.81019 21 01 41.82 +27 08 22.0                      557
         K00R60J  C2000 09 08.82528 21 01 38.09 +27 09 04.9                      611
         K00R60J  C2000 09 08.83944 21 01 34.63 +27 09 43.6                      611
         K00R60J  C2000 09 08.84113 21 01 34.10 +27 09 49.1                      611
         K00R60J  C2000 09 09.01728 21 00 50.03 +27 17 55.1          18.3 R      046
         K00R60J  C2000 09 09.01855 21 00 49.75 +27 17 58.2                      046
         K00R60J  C2000 09 09.01933 21 00 49.54 +27 18 01.4                      046
         K00R60J  C2000 09 09.02046 21 00 49.29 +27 18 04.2                      046
    
    Observer details:
    046 Klet.  Observers J. Ticha, M. Tichy, Z. Moravec, M. Kovcer.  0.57-m
        f/5.2 reflector + CCD.
    151 Eschenberg Observatory, Winterthur.  Observer M. Griesser.  0.40-m f/5.8
        Hypergraph.
    557 Ondrejov.  Observers L. Sarounova, P. Kusnirak.  0.65-m f/3.6 reflector
        + CCD.
    595 Farra d'Isonzo.  Observers G. Lombardi, A. Toso.  0.40-m f/4.5 reflector
        + CCD.
    611 Starkenburg.  Observers M. Busch, S. Kluegl.  0.45-m f/4.4 reflector + CCD.
    658 National Research Council of Canada.  Observer D. D. Balam.  1.82-m
        Plaskett reflector + CCD.
    704 Lincoln Laboratory ETS, New Mexico.  Observers M. Blythe, F. Shelly,
        M. Bezpalko, M. Elowitz, R. Huber, L. Manguso.  Measurers J. Stuart,
        R. Sayer, J. B. Evans, H. Viggh.  1.0-m f/2.15 reflector + CCD.
    853 Biosphere 2 Observatory.  Observer G. J. Garradd.  0.5-m f/8.1 reflector
        + CCD.
    
    Orbital elements:
    2000 RJ60
    Epoch 2000 Aug. 24.0 TT = JDT 2451780.5                 Spahr
    M 329.85300              (2000.0)            P               Q
    n   0.39959943     Peri.   67.86633     +0.74629186     -0.57504562
    a   1.8255181      Node   324.47365     +0.15153833     +0.63717819
    e   0.3224970      Incl.   35.23212     +0.64813933     +0.51315347
    P   2.47           H   18.7           G   0.15
    From 43 observations 2000 Sept. 6-9.
    
    Ephemeris:
    2000 RJ60                a,e,i = 1.83, 0.32, 35                  q = 1.2368
    Date    TT    R. A. (2000) Decl.     Delta      r     Elong.  Phase     V
    2000 09 03    21 26.27   +22 08.1    0.405    1.358   144.1    25.9    18.6
    2000 09 13    20 45.27   +30 06.8    0.438    1.326   129.0    36.2    19.0
    2000 09 23    20 12.90   +35 16.1    0.490    1.298   116.5    43.8    19.4
    2000 10 03    19 51.51   +38 30.3    0.550    1.275   107.0    48.6    19.8
    2000 10 13    19 40.16   +40 46.4    0.609    1.257   100.1    51.4    20.0
    2000 10 23    19 36.97   +42 39.3    0.663    1.244    95.1    52.8    20.2
    2000 11 02    19 40.54   +44 28.7    0.709    1.238    91.8    53.3    20.4
    2000 11 12    19 50.06   +46 26.7    0.746    1.237    89.8    53.1    20.5
    2000 11 22    20 05.37   +48 38.8    0.773    1.243    89.0    52.6    20.5
    2000 12 02    20 27.13   +51 07.8    0.792    1.255    89.2    51.7    20.6
    2000 12 12    20 56.60   +53 52.0    0.803    1.273    90.2    50.7    20.6
    2000 12 22    21 35.79   +56 41.3    0.812    1.296    91.9    49.4    20.7
    2001 01 01    22 27.14   +59 14.4    0.822    1.323    93.9    47.9    20.7
    2001 01 11    23 31.48   +60 55.9    0.837    1.355    95.8    46.2    20.7
    2001 01 21    00 45.00   +61 04.5    0.863    1.389    97.4    44.6    20.8
    2001 01 31    01 58.60   +59 20.3    0.903    1.427    98.1    43.1    20.9
    2001 02 10    03 03.67   +56 00.8    0.962    1.467    97.6    41.8    21.1
    2001 02 20    03 57.36   +51 45.3    1.038    1.508    96.1    40.7    21.3
    2001 03 02    04 41.15   +47 11.1    1.132    1.550    93.6    39.7    21.5
    2001 03 12    05 17.49   +42 42.1    1.241    1.593    90.2    38.6    21.7
    2001 03 22    05 48.53   +38 29.7    1.362    1.636    86.4    37.4    22.0
    
    Timothy B. Spahr             (C) Copyright 2000 MPC           M.P.E.C. 2000-R39
    

    Read MPEC 2000-R38 Read MPEC 2000-R40


    MPEC number:

    Enter an MPEC number in one of the following forms:

    • 1997-B01 (the full form)
    • J97B01 (the packed version of the full form)
    • B01 (the abbreviated form)